Location: Crayja
(6.2254°N, 10.6273°W)
Time: 07:36:54
(UTC+00:00)

Ariane 44LP R/B - Pass Details

Date: 17 February 2020
Orbit: 579 x 17726 km, 3.5° (Epoch: 06 April)

Event Time Altitude Azimuth Distance (km) Brightness Sun altitude
Exits shadow 05:40:13 32° 223° (SW) 990 4.3 -19.9°
Maximum altitude 05:41:24 44° 175° (S) 814 4.2 -19.6°
Drops below altitude 10° 05:45:48 10° 100° (E) 2,451 7.9 -18.6°
Sets 05:49:26 0° 94° (E) 4,185 9.5 -17.7°
